Location: Unspecified
(36.9741°N, 0.0000°E)
Time: 03:43:36
(UTC+00:00)

CP4 - Visible Passes

Search period start: 04 April 2026 00:00
Search period end: 14 April 2026 00:00
Orbit: 623 x 722 km, 98.4° (Epoch: 29 March)

Date Brightness Start Highest point End Pass type
(mag) Time Alt. Az. Time Alt. Az. Time Alt. Az.
4 Apr ? 04:42:13 10° N 04:46:44 83° WNW 04:51:06 10° SSW visible
5 Apr ? 03:39:42 10° NE 03:42:48 18° E 03:45:51 10° SE visible
6 Apr ? 04:12:08 10° NNE 04:16:23 43° E 04:20:32 10° S visible
7 Apr ? 04:45:21 10° N 04:49:49 77° WNW 04:54:09 10° SSW visible
8 Apr ? 03:42:42 10° NE 03:45:54 19° E 03:49:03 10° SE visible
9 Apr ? 04:15:12 10° NNE 04:19:28 46° E 04:23:38 10° S visible
10 Apr ? 04:48:27 10° N 04:52:52 72° WNW 04:57:10 10° SSW visible
11 Apr ? 03:45:40 10° NE 03:48:59 21° E 03:52:13 10° SE visible
12 Apr ? 04:18:14 10° NNE 04:22:31 49° E 04:26:42 10° S visible
13 Apr ? 04:51:32 10° N 04:55:53 67° WNW 05:00:10 10° SSW visible
